Theta_e
305 304 304 304 304 304 304 305 305 305 306 306 306 306 307 308 308 304 303 310 301 295 297 301 300 296 295 292 287 291 289 290 287 282 282 281 280 281 282 285 285 284 281 281 283 281 279 294 295 289 294 299 303 303
304 304 304 304 304 304 304 304 305 305 306 306 306 306 307 307 307 307 301 308 308 300 298 303 304 304 301 299 294 293 291 290 291 285 285 285 280 282 282 278 290 282 286 283 286 284 292 296 296 299 300 300 301 302
303 303 303 304 304 304 304 305 305 305 306 306 306 306 307 307 307 306 301 305 303 298 298 300 299 304 305 303 303 292 293 296 292 294 288 287 282 284 278 281 285 289 294 287 288 292 294 296 299 300 300 301 305 309
302 302 303 303 304 304 305 305 305 306 306 306 307 307 307 307 307 306 302 306 303 297 292 296 305 302 307 306 304 301 298 298 297 294 289 286 284 290 284 286 286 290 291 288 289 293 296 297 297 297 299 303 304 304
301 302 303 303 303 304 305 305 305 305 306 306 306 307 307 307 306 305 305 308 305 297 289 292 298 304 306 305 303 302 298 294 291 288 287 285 290 289 290 288 288 290 288 286 287 293 293 295 296 297 300 302 303 302
301 302 303 303 303 304 305 305 305 305 306 306 307 307 307 306 306 304 301 307 306 304 294 288 300 303 303 303 302 298 295 292 291 289 288 289 295 289 285 283 290 292 295 292 293 296 294 295 297 304 302 303 302 301
301 302 302 303 303 304 304 305 305 305 306 306 306 307 307 307 305 300 296 301 305 306 295 291 293 301 303 301 301 298 297 293 292 290 288 289 290 289 285 283 289 295 297 297 298 298 293 293 293 297 300 301 301 299
300 301 302 303 304 304 304 305 305 305 305 306 307 307 306 306 304 301 304 306 303 301 298 290 291 295 301 294 293 298 294 295 293 291 291 289 290 289 285 290 293 295 296 296 297 298 295 295 295 295 297 297 295 295
301 302 302 303 304 304 304 305 305 305 305 306 307 307 305 303 303 303 308 306 307 302 294 294 289 287 299 295 295 297 296 289 293 289 292 290 287 285 291 292 293 295 294 295 297 297 294 293 293 294 295 295 293 293
301 302 302 303 304 304 304 305 305 305 305 306 305 304 302 306 308 307 303 301 300 301 299 293 296 291 295 293 292 293 296 290 286 293 295 286 285 295 297 297 298 297 298 298 293 291 292 292 293 293 294 295 295 295
301 301 302 302 303 304 304 304 305 305 307 308 303 302 305 308 305 304 298 297 298 295 297 295 294 290 298 290 290 293 292 293 286 289 288 286 286 294 300 299 301 300 296 295 295 294 294 294 294 294 295 297 297 297
301 301 302 303 303 304 304 304 304 303 303 300 299 303 306 305 301 296 293 296 294 290 295 292 293 295 296 299 293 295 292 293 286 295 288 285 290 296 300 301 300 302 301 297 296 296 296 297 297 296 296 296 297 299
301 302 302 303 303 304 304 304 305 305 305 308 302 301 298 299 289 288 284 289 289 293 295 294 290 296 297 298 294 294 290 288 297 288 285 286 292 297 301 302 303 303 304 300 298 298 298 298 299 298 298 299 299 298
302 302 303 303 304 304 304 305 305 305 305 302 298 287 293 291 291 292 291 291 294 293 293 294 293 294 298 294 295 290 294 293 285 284 284 290 297 300 303 304 303 303 304 305 304 302 302 300 300 301 302 302 302 301
302 302 303 304 304 304 304 304 305 308 306 299 298 289 292 297 297 296 296 294 296 297 296 295 296 297 296 294 295 293 289 285 284 285 291 296 299 300 301 303 304 305 305 305 306 306 304 304 303 303 304 304 304 302
302 302 303 303 304 303 304 305 310 311 307 301 298 295 297 295 294 295 295 295 300 299 300 299 295 293 292 293 289 286 285 284 287 293 298 300 300 302 302 303 305 306 306 306 306 307 307 305 304 304 305 303 304 301
301 303 303 303 303 303 306 307 310 303 300 297 297 300 298 297 296 295 295 296 302 298 294 295 290 289 294 288 285 287 286 291 295 298 301 301 300 302 303 304 305 306 305 306 306 306 306 307 306 305 300 302 302 302
302 305 305 303 303 306 312 307 304 301 296 299 297 297 299 301 299 302 303 304 301 298 298 294 296 288 285 285 285 288 294 298 300 301 301 302 303 301 300 299 300 304 305 306 306 306 305 305 304 303 303 304 302 301
301 301 303 303 302 300 302 301 305 296 298 300 302 301 302 303 305 306 304 305 302 302 299 294 289 287 287 290 291 295 298 299 298 300 298 301 302 300 301 300 299 300 305 305 304 302 304 304 303 304 302 302 300 300
301 302 302 303 304 304 298 300 308 300 296 300 301 302 303 302 303 304 302 302 300 298 293 291 291 292 295 297 299 300 301 302 301 295 294 296 298 298 298 299 298 299 298 299 304 300 303 303 304 304 302 302 300 297
304 306 304 305 309 305 303 301 300 301 301 299 302 303 301 303 302 300 299 302 298 296 294 297 298 301 303 304 304 303 300 301 300 296 294 294 297 297 297 297 298 298 297 297 297 299 300 301 302 304 303 304 302 301
306 304 308 309 302 302 301 305 301 304 301 301 300 302 300 299 299 300 301 297 296 300 302 302 303 304 304 303 302 302 303 302 302 297 296 296 295 295 296 297 297 295 296 298 299 299 301 302 303 305 303 301 299 300
304 304 305 303 297 293 291 305 299 300 296 297 300 297 297 297 300 304 297 299 300 304 306 305 305 307 306 306 306 304 304 301 298 296 296 296 297 297 296 297 297 295 294 298 299 301 301 296 302 304 305 304 302 301
299 302 298 297 296 291 299 297 300 298 297 297 295 293 296 297 302 299 294 297 301 305 303 304 304 303 303 304 302 302 302 302 300 299 297 296 295 295 296 297 296 296 296 298 298 298 300 300 299 304 303 303 302 300
292 292 293 286 296 293 292 293 295 295 292 294 293 294 297 300 295 294 294 298 300 301 302 303 303 301 300 300 301 303 304 301 299 298 298 298 297 296 295 296 297 296 297 297 296 297 299 299 300 300 302 301 299 299
284 293 290 294 293 292 292 290 291 292 294 292 294 297 298 296 292 291 296 300 301 303 302 302 302 301 300 301 301 300 301 303 302 298 299 299 297 295 294 293 293 294 298 298 297 296 296 297 298 300 300 300 293 300
285 292 296 300 297 297 295 296 296 293 292 290 294 294 294 288 290 296 301 302 302 304 305 304 304 302 301 301 303 304 305 304 302 300 301 301 299 298 296 294 294 295 298 298 297 297 296 295 296 299 299 300 300 300
296 296 293 296 297 299 292 293 293 292 293 296 296 290 289 289 291 299 302 304 306 306 305 304 306 304 304 304 304 304 304 304 304 302 301 301 301 299 298 298 298 288 298 297 297 298 299 298 299 299 299 298 298 300
295 298 297 294 295 295 294 293 293 296 299 297 295 294 293 300 303 303 304 304 306 306 304 303 304 305 305 305 306 304 302 301 298 296 295 293 294 295 296 297 297 299 299 298 291 290 297 296 297 298 299 298 298 299
295 299 295 294 292 290 296 300 299 301 302 301 302 302 302 303 305 306 305 304 303 303 305 304 305 303 301 300 300 301 301 300 298 295 292 291 292 294 295 295 296 297 299 298 298 299 291 297 295 300 298 297 296 296
299 299 296 295 294 297 299 302 302 301 301 301 301 300 299 302 304 307 305 306 304 303 303 303 303 303 302 300 300 299 297 298 298 297 295 294 293 293 294 295 296 297 298 298 297 296 296 296 295 295 294 293 293 293
299 296 296 292 295 299 301 299 299 299 299 298 299 299 299 299 297 303 307 308 305 302 296 299 301 302 304 304 302 300 290 299 298 297 294 292 292 293 293 293 294 296 297 297 297 295 295 295 294 293 292 292 291 291
297 296 296 296 296 295 297 297 295 295 296 296 297 298 298 297 294 303 309 310 307 305 305 304 305 304 305 304 303 302 295 296 290 284 284 283 283 285 291 291 291 293 294 295 295 295 294 293 292 291 290 290 289 289
Wind_Speed
4 6 7 8 10 11 12 14 15 16 16 17 17 19 20 18 19 10 6 5 3 3 8 5 7 5 4 3 4 8 7 7 4 6 4 4 4 5 5 12 7 6 6 4 4 4 2 15 12 7 6 11 12 14
4 5 6 7 9 11 12 13 14 14 15 16 18 18 18 17 16 13 3 6 7 3 6 7 6 5 4 7 3 4 3 4 3 3 4 4 3 4 10 5 6 5 5 4 2 2 7 10 4 9 10 10 9 11
4 4 5 7 9 10 11 12 14 15 16 16 17 17 17 16 14 9 4 5 4 3 5 5 4 5 10 7 6 2 2 0 1 3 1 3 5 3 4 4 13 12 6 2 6 6 7 5 7 10 12 13 13 8
3 3 5 7 8 10 11 13 14 16 16 16 16 17 16 15 12 9 3 5 3 4 3 2 7 8 6 3 5 3 3 4 3 2 1 3 4 3 3 8 8 3 7 9 2 8 8 9 11 13 16 13 16 17
1 3 5 7 9 10 12 14 15 16 16 17 18 17 15 13 10 5 4 1 2 2 3 6 10 3 3 3 4 6 7 5 2 1 2 3 4 4 3 5 3 3 4 4 3 10 7 11 17 22 6 12 11 18
1 3 5 8 9 11 13 14 16 17 17 18 18 17 14 10 6 2 1 2 4 1 2 3 4 4 9 5 7 9 5 4 1 2 2 4 2 2 4 4 5 14 8 5 4 12 13 14 19 18 17 13 17 18
1 4 7 9 11 12 13 15 17 18 18 18 17 15 11 8 3 2 2 1 3 1 0 3 2 4 5 6 2 4 3 3 1 2 2 3 3 3 2 4 11 14 17 7 10 5 11 19 13 18 16 11 14 17
2 5 7 9 11 13 14 17 18 19 19 17 15 14 8 8 6 3 3 4 2 3 2 3 4 4 5 4 4 2 2 2 1 3 3 3 4 0 4 4 13 12 11 12 9 9 12 10 15 16 13 13 16 14
3 6 8 10 12 13 15 17 19 22 22 16 13 8 3 2 3 2 5 4 3 2 3 3 3 4 4 4 3 2 1 3 1 2 3 4 4 6 9 1 2 7 5 3 4 10 11 12 11 14 14 14 12 9
4 7 9 11 12 14 15 16 20 25 26 13 3 3 3 2 10 9 2 3 0 0 2 1 3 3 3 3 3 4 0 1 2 1 1 4 3 4 11 12 2 5 5 2 7 7 6 8 8 9 8 6 7 8
6 8 10 12 13 14 15 16 19 23 12 2 3 3 4 7 3 3 2 2 3 1 3 4 4 4 1 3 3 2 3 3 3 2 3 4 5 9 13 12 13 7 6 4 6 6 7 7 6 5 4 4 6 7
7 9 11 12 14 14 14 16 15 8 3 4 4 6 4 3 1 3 4 2 5 3 3 4 3 2 4 3 3 4 3 3 4 3 4 5 5 15 11 9 10 10 8 7 7 7 6 6 6 6 6 5 6 7
9 10 11 13 14 14 15 17 13 10 11 2 3 4 3 2 7 5 7 3 3 4 3 5 4 3 3 3 4 2 4 3 4 4 4 2 12 12 11 7 10 8 7 5 5 5 6 7 7 6 5 6 7 6
10 11 13 14 14 15 17 17 12 6 3 4 3 5 2 4 4 2 3 2 1 3 5 4 4 3 3 3 3 3 4 5 4 4 4 7 13 11 9 5 3 6 10 10 5 5 4 5 6 6 5 4 4 5
11 13 14 13 11 14 16 16 11 3 4 3 4 4 4 4 2 2 1 2 4 5 4 4 4 3 4 2 3 4 5 4 4 3 4 5 7 9 10 10 11 6 4 6 7 7 1 4 6 6 5 5 7 9
13 16 3 10 14 16 16 11 3 4 4 2 5 4 4 4 4 1 2 3 3 3 4 3 4 3 4 3 5 7 4 4 4 5 7 5 7 7 7 10 13 12 6 5 8 9 3 7 6 5 6 6 7 8
11 0 5 10 16 19 8 2 4 3 4 4 2 4 3 2 2 3 2 3 2 2 2 3 5 5 5 5 4 3 3 4 7 7 7 8 6 7 7 7 7 10 11 9 7 7 6 5 5 5 5 3 6 7
1 5 11 13 13 6 3 3 4 1 4 3 3 2 1 1 4 4 2 3 3 3 1 5 4 5 4 2 2 3 3 5 5 5 6 7 6 6 7 7 8 5 6 5 4 4 7 6 2 3 6 5 5 5
8 10 15 13 6 3 3 2 2 2 5 3 2 1 2 3 3 3 2 4 5 5 3 3 4 3 1 2 3 6 4 3 3 5 6 7 6 7 7 7 9 10 3 4 6 3 4 5 3 1 1 3 2 1
15 16 15 9 1 4 3 2 2 1 2 1 1 1 2 2 4 2 6 6 4 3 4 3 1 3 3 3 4 6 6 5 2 3 5 5 5 7 6 5 6 7 6 6 3 4 6 5 4 4 4 5 4 3
5 1 6 2 4 5 2 4 1 2 3 1 2 2 1 3 2 6 5 3 3 3 2 1 2 3 5 6 4 3 4 5 1 1 2 4 5 5 5 5 6 7 7 7 7 1 3 3 3 4 4 3 3 3
2 5 3 4 3 3 3 1 2 1 2 2 1 1 2 1 1 2 4 4 3 2 0 1 2 4 4 4 1 3 5 6 4 3 6 5 4 6 6 5 7 7 7 7 7 8 9 6 6 6 5 4 5 4
8 2 4 1 3 2 5 3 3 2 1 2 1 2 3 2 1 1 3 3 2 2 3 3 5 7 7 5 4 1 4 5 4 3 4 4 4 4 5 5 6 7 7 6 7 7 6 8 8 7 8 7 6 5
0 4 4 2 4 3 2 2 2 2 1 1 2 1 2 1 1 1 3 3 2 1 2 4 5 3 3 5 3 3 3 3 4 3 4 4 4 4 5 4 6 6 6 3 4 5 5 6 7 3 1 3 4 3
2 3 2 4 4 3 4 3 3 2 1 2 1 1 1 1 1 3 3 3 3 1 2 5 3 3 3 3 3 2 4 5 4 4 4 3 4 4 5 5 5 6 7 5 6 5 4 4 4 5 4 4 6 6
1 4 3 3 1 3 3 3 2 3 1 2 1 4 3 2 2 3 2 2 2 3 2 3 3 3 4 5 4 3 2 4 4 4 5 3 5 5 4 5 5 5 6 5 5 8 7 6 6 7 5 4 6 7
3 5 4 1 4 3 3 3 5 1 4 1 1 1 0 2 3 2 1 3 2 1 1 2 2 2 2 4 6 3 1 4 4 1 4 4 7 5 4 4 4 4 5 7 6 6 5 5 7 7 7 8 7 5
4 4 1 2 1 1 3 5 4 5 3 3 2 2 2 3 2 2 2 3 2 2 3 4 2 3 4 3 5 6 0 5 5 5 5 5 6 6 6 4 4 6 3 5 5 6 6 6 7 7 8 6 6 6
3 2 1 3 2 2 2 4 2 3 2 3 1 2 2 1 1 3 3 2 3 2 3 3 2 3 5 5 2 6 6 6 7 8 8 6 6 5 6 6 5 4 4 5 10 7 5 2 1 4 7 8 8 6
1 2 1 3 4 2 2 3 3 0 1 3 1 2 2 0 2 2 2 4 3 3 0 1 4 5 6 5 5 6 8 9 9 7 5 5 6 6 6 6 7 5 3 3 7 10 11 8 10 7 8 7 8 8
2 3 2 3 3 1 3 2 4 5 4 2 4 3 2 3 3 3 4 4 2 3 2 1 3 3 3 4 4 4 6 7 8 8 5 4 5 5 5 7 5 5 6 3 5 5 7 7 6 6 10 10 10 9
1 2 2 3 3 3 5 3 1 2 2 4 3 4 4 3 4 0 2 2 1 3 3 1 4 4 5 3 5 5 3 6 6 5 6 4 4 5 6 6 7 8 8 6 5 6 6 6 6 8 8 10 10 11
2 3 6 3 3 3 3 2 3 4 5 6 6 7 7 5 5 4 3 2 3 3 2 1 2 6 4 4 2 2 7 8 9 6 5 4 3 4 4 5 6 8 9 8 5 4 5 9 8 9 9 9 9 10
Wind_Direction
76 49 34 23 12 8 8 6 3 2 359 355 356 360 358 352 356 359 282 286 76 319 284 47 3 347 334 20 324 319 335 18 331 2 12 339 345 300 316 315 301 332 342 5 328 284 272 347 342 24 313 312 328 333
78 51 29 15 12 10 6 2 357 353 349 349 354 351 347 346 350 350 305 333 330 202 260 275 264 312 42 66 29 328 264 356 3 353 17 305 303 273 321 297 337 354 360 314 255 311 264 305 353 328 331 320 321 308
81 45 22 18 12 5 359 355 350 346 342 344 345 341 339 340 343 346 294 305 321 308 290 88 133 158 86 87 127 17 354 328 33 130 261 277 272 310 307 296 316 348 338 292 323 334 359 323 1 5 357 317 320 108
85 31 22 14 4 355 351 345 340 337 335 336 336 335 335 334 332 327 315 312 7 298 290 56 46 15 104 74 114 129 320 18 70 77 237 262 259 315 266 277 312 337 333 319 236 349 320 18 3 342 324 323 105 81
91 27 14 3 355 348 341 337 333 330 329 332 333 334 333 331 326 303 267 153 95 19 326 309 308 146 265 328 41 79 49 37 13 354 261 259 331 345 322 277 14 324 335 329 314 8 358 350 334 315 303 83 89 90
57 6 356 354 347 340 333 330 327 323 326 331 331 330 332 332 332 294 143 74 29 343 95 313 328 31 13 121 91 76 67 58 35 342 307 302 277 359 321 322 320 305 295 257 339 55 31 13 336 66 77 56 79 76
344 353 350 346 340 333 327 326 321 319 324 326 328 324 326 326 305 329 32 57 334 278 12 301 286 91 358 29 111 86 91 81 359 323 282 293 302 37 340 328 315 20 31 69 36 63 38 22 12 37 51 57 68 76
351 346 343 338 333 327 327 322 317 320 320 322 320 312 306 300 284 242 191 223 289 261 245 347 326 345 46 356 336 43 30 105 84 320 275 295 292 200 42 22 33 20 39 53 67 72 70 51 22 36 54 54 63 67
334 337 335 332 327 325 324 318 319 319 316 318 301 292 286 196 246 71 158 171 238 299 22 17 356 326 25 360 306 287 87 27 118 317 334 345 327 38 344 248 79 84 93 132 106 99 95 80 61 35 24 53 58 65
325 330 330 327 324 325 319 320 323 321 317 325 225 220 227 83 120 130 141 172 221 184 65 14 27 325 17 339 274 343 139 239 9 67 119 31 302 355 352 4 23 189 222 28 49 45 88 92 83 81 72 34 55 43
327 326 324 324 324 318 317 319 325 324 311 303 321 0 358 155 214 210 215 196 149 110 52 17 44 323 144 332 308 276 292 254 24 7 70 344 345 357 2 13 5 20 87 83 97 75 52 87 133 138 128 84 66 61
322 322 320 319 315 313 311 313 327 326 10 314 288 275 256 242 241 349 5 54 53 47 18 357 323 291 287 192 253 272 272 347 25 73 40 341 324 340 341 349 351 343 350 63 81 86 86 88 80 77 80 78 65 56
318 316 315 313 312 306 301 307 316 292 288 207 210 239 63 15 38 33 3 9 353 7 7 345 315 283 288 219 257 291 333 15 41 34 331 313 315 326 328 335 345 10 353 88 118 124 129 122 121 117 99 89 103 94
310 312 312 311 304 297 297 303 320 332 269 239 206 8 68 29 45 28 307 305 336 266 301 301 264 237 243 276 247 338 6 59 19 3 360 331 347 3 8 38 343 25 11 360 7 14 43 110 114 108 105 94 87 111
312 312 309 294 295 297 301 307 310 252 273 313 47 43 33 104 82 60 346 271 219 234 254 279 252 227 265 258 24 12 46 23 2 6 311 10 339 332 359 8 24 21 349 39 12 356 334 82 97 83 77 73 66 74
321 301 284 317 302 308 313 317 258 220 235 44 37 352 23 47 43 12 318 296 273 297 292 221 262 306 16 26 43 23 31 11 319 313 337 359 337 341 344 360 2 24 55 43 80 50 42 115 115 104 79 86 96 96
310 331 331 335 336 314 310 235 261 16 7 55 38 49 64 88 324 257 204 252 282 316 307 318 36 4 12 47 37 24 350 321 305 306 324 313 317 322 336 347 357 35 51 74 50 36 54 95 112 112 114 146 124 137
251 3 353 348 345 294 235 206 304 41 79 39 60 57 57 210 257 293 219 262 174 239 24 28 51 39 48 44 339 284 276 267 273 291 291 295 333 2 355 353 347 16 86 81 57 42 35 32 76 131 180 195 144 143
311 307 307 316 342 299 289 75 330 344 77 69 86 178 271 293 278 300 300 90 53 49 72 53 57 41 59 236 237 268 284 279 298 311 342 352 5 0 345 344 351 349 87 104 85 21 342 330 36 344 332 57 90 163
287 279 277 287 344 271 306 107 228 349 54 116 66 38 358 331 307 41 58 42 42 48 58 57 79 201 197 239 236 254 274 288 237 11 340 331 336 344 337 4 353 357 21 15 91 63 56 20 359 15 12 348 81 62
300 326 301 230 196 233 316 297 117 21 74 317 129 82 39 327 339 78 72 42 37 49 74 166 223 240 254 265 282 319 325 316 358 91 309 315 329 346 352 13 17 21 14 13 7 15 47 20 348 40 44 345 316 89
11 339 282 191 288 20 286 139 306 79 128 195 222 166 122 113 29 111 125 39 51 37 101 238 221 226 255 221 150 294 312 344 41 48 356 348 26 11 2 20 42 29 1 7 2 4 28 13 5 36 31 26 56 58
297 207 234 234 31 33 263 239 220 177 105 230 144 235 159 157 167 310 98 150 207 239 225 273 283 269 270 180 173 63 6 18 10 55 5 359 27 23 2 26 55 38 355 16 5 13 23 11 21 34 4 356 33 11
45 288 319 288 171 245 239 197 216 270 235 176 248 171 146 145 350 221 124 152 173 153 244 301 273 256 25 50 134 78 356 49 10 33 25 15 27 23 11 26 55 35 343 8 18 3 5 8 350 18 359 325 344 11
343 300 157 287 265 256 252 169 175 228 125 242 355 256 221 154 230 198 139 142 175 82 332 309 284 302 39 26 9 93 48 51 22 0 354 35 62 35 14 11 63 34 341 351 7 2 352 341 330 343 341 21 6 329
13 210 183 262 359 281 340 310 327 129 127 316 292 136 232 245 256 107 57 133 109 97 345 349 22 8 5 348 341 21 31 72 59 9 323 353 84 67 24 7 19 9 337 340 17 347 348 348 338 0 6 7 34 9
254 221 188 248 325 70 0 308 97 292 273 303 101 119 245 10 22 25 338 65 41 44 21 299 10 18 300 302 299 293 265 110 110 44 326 36 83 72 48 21 16 332 334 17 357 332 338 340 321 359 24 22 16 12
291 344 314 111 69 29 307 296 349 322 49 340 138 165 43 115 225 273 67 71 40 325 339 335 1 301 288 304 307 310 292 120 90 48 18 35 74 65 41 13 356 347 31 4 334 319 324 337 22 24 12 357 346 340
252 293 292 207 122 347 285 283 336 13 45 297 356 116 193 202 312 349 338 311 181 242 256 251 265 264 265 263 302 41 63 59 59 45 40 16 3 26 24 357 343 356 40 349 323 322 327 7 12 22 27 25 5 357
206 53 83 292 134 248 267 349 320 53 77 293 286 93 102 309 273 187 276 294 280 224 185 325 306 25 357 358 48 56 68 65 56 51 29 4 348 19 6 344 334 344 3 8 1 360 359 51 53 51 33 29 10 12
3 330 210 228 283 278 272 318 318 310 308 274 310 311 261 236 238 194 202 233 286 305 104 353 337 96 47 12 2 40 79 77 78 76 46 3 12 11 339 320 333 341 330 18 70 23 20 28 33 32 38 31 21 18
233 185 309 326 319 329 303 272 281 268 279 288 280 285 308 305 283 340 307 284 298 86 124 314 334 37 63 50 97 103 121 97 83 65 47 35 22 2 340 355 354 334 331 344 77 61 28 41 39 42 34 27 28 13
152 238 250 244 242 269 273 239 252 255 240 229 222 233 231 231 238 232 168 185 156 180 94 85 90 105 118 98 96 93 100 99 110 112 116 101 78 3 1 6 347 333 339 345 31 70 68 67 57 53 40 31 30 18